{"data":{"norad_id":84232,"intl_designator":"","name":"UNKNOWN","alt_names":[],"object_type":"UNKNOWN","status":"UNKNOWN","operator":null,"country":null,"launch_date":null,"launch_site_code":null,"launch_vehicle":null,"mission":null,"orbit_class":"UNKNOWN","rcs_meters":null,"size_class":null,"mass_kg":null,"dimensions":null,"purposes":[],"wikipedia_slug":null,"has_3d_model":false,"image_url":null,"decayed_at":null,"tle_current":{"epoch":"2026-09-18T06:01:50.712960Z","epoch_age_seconds":216163,"freshness":"STALE","line1":"1 84232U          26261.25128140  .00003738  00000+0  28464-2 0  9995","line2":"2 84232  20.3257 106.1345 6444760   7.6935 358.8124  3.33738826113819","mean_motion":3.33738826,"eccentricity":0.644476,"inclination_deg":20.3257,"raan_deg":106.1345,"arg_perigee_deg":7.6935,"mean_anomaly_deg":358.8124,"bstar":0.0028464,"rev_number":11381,"period_min":431.47512000896,"perigee_km":346.46020262156,"apogee_km":24726.482405099,"semimajor_km":18914.60830386,"source":"CELESTRAK","updated_at":"2026-09-20T09:00:32.442498Z"}}}